Location: Memphis International Airport Police
(35.0443°N, 89.9815°W)
Time: 19:56:23
(UTC+00:00)

IGS 5A - Pass Details

Date: 26 September 2023
Orbit: 571 x 581 km, 97.5° (Epoch: 10 December)

Event Time Altitude Azimuth Distance (km) Brightness Sun altitude
Rises 00:17:37 0° 143° (SE) 2,793 6.5 -6.0°
Reaches altitude 10° 00:19:58 10° 132° (SE) 1,898 5.6 -6.4°
Maximum altitude 00:23:32 29° 72° (ENE) 1,083 4.3 -7.2°
Drops below altitude 10° 00:27:06 10° 12° (NNE) 1,908 6.0 -7.9°
Sets 00:29:28 0° 1° (N) 2,811 7.0 -8.4°
